Home > Weather > Nagercoil > Past weeks

Flag for India Past Weather in Nagercoil, Tamil Nadu, India — Yesterday and Last 2 Weeks

Now
84 °F

Broken clouds.


Feels Like: 92 °F
Forecast: 77 / 87 °F
Wind: 7 mph from Northwest

Location: Thiruvananthapuram

Current Time: Jun 26, 2016 at 10:18:45 AM

Latest Report: Jun 26, 2016 at 9:30 AM


Visibility: 2 mi

Pressure: 29.83 "Hg

Humidity: 74%

Dew Point: 75 °F

Location of NagercoilLocation

Past Weather in Nagercoil — Graph

°F

Nagercoil Temperature Yesterday

Maximum temperature yesterday: 86 °F (at 10:30 AM)
Minimum temperature yesterday: 77 °F (at 10:30 PM)
Average temperature yesterday: 81 °F

High & Low Weather Summary for the Past Weeks

 TemperatureHumidityPressure
High90 °F (Jun 14, 1:30 PM)100% (Jun 11, 1:30 PM)29.89 "Hg (Jun 11, 1:30 PM)
Low73 °F (Jun 23, 12:30 AM)59% (Jun 21, 1:30 PM)29.65 "Hg (Jun 20, 4:30 PM)
Average81 °F84%29.77 "Hg
* Reported Jun 11 8:30 AM — Jun 26 9:00 AM, Nagercoil, Weather by CustomWeather, © 2016

Note: Actual official high and low records may vary slightly from our data, if they occured in-between our weather recording intervals... More about our weather records

Advertising

Nagercoil Weather History for the Previous 24 Hours

Scroll right to see more
 ConditionsComfort  
Time TempWeatherWind HumidityBarometerVisibility
9:00 AM
Sun, Jun 26
81 °FBroken clouds.6 mph79%29.80 "Hg2 mi
8:30 AM81 °FBroken clouds.6 mph79%29.80 "Hg2 mi
8:00 AM79 °FBroken clouds.5 mph84%29.80 "Hg2 mi
7:30 AM79 °FBroken clouds.5 mph84%29.80 "Hg2 mi
7:00 AM77 °FBroken clouds.5 mph89%29.77 "Hg2 mi
6:30 AM77 °FPartly cloudy.5 mph89%29.77 "Hg1 mi
6:00 AM77 °FPartly cloudy.5 mph89%29.77 "Hg2 mi
5:30 AM77 °FPartly cloudy.5 mph89%29.77 "Hg2 mi
4:30 AM79 °FPartly cloudy.6 mph84%29.77 "Hg2 mi
3:30 AM79 °FPartly cloudy.6 mph84%29.77 "Hg2 mi
2:30 AM79 °FPartly cloudy.6 mph79%29.77 "Hg2 mi
2:00 AM79 °FPartly cloudy.8 mph79%29.77 "Hg2 mi
1:30 AM79 °FPartly cloudy.10 mph84%29.77 "Hg2 mi
1:00 AM79 °FPartly cloudy.8 mph84%29.80 "Hg2 mi
12:30 AM79 °FPartly cloudy.6 mph84%29.80 "Hg2 mi
12:00 AM81 °FPartly cloudy.8 mph79%29.83 "Hg2 mi
11:30 PM
Sat, Jun 25
79 °FPartly cloudy.6 mph84%29.83 "Hg2 mi
11:00 PM77 °FPartly cloudy.6 mph89%29.83 "Hg2 mi
10:30 PM77 °FPartly cloudy.7 mph89%29.83 "Hg2 mi
10:00 PM79 °FPartly cloudy.6 mph84%29.80 "Hg2 mi
9:30 PM79 °FPartly cloudy.7 mph84%29.80 "Hg2 mi
9:00 PM81 °FPartly cloudy.10 mph79%29.80 "Hg2 mi
8:30 PM82 °FPartly cloudy.12 mph79%29.80 "Hg2 mi
8:00 PM82 °FPartly cloudy.10 mph74%29.80 "Hg2 mi
7:30 PM84 °FPartly cloudy.8 mph70%29.80 "Hg2 mi
7:00 PM84 °FBroken clouds.16 mph70%29.77 "Hg2 mi
6:30 PM82 °FBroken clouds.N/A79%29.77 "Hg2 mi
6:00 PM81 °FBroken clouds.13 mph79%29.77 "Hg2 mi
5:30 PM81 °FBroken clouds.13 mph79%29.74 "Hg2 mi
5:00 PM82 °FMore clouds than sun.12 mph74%29.74 "Hg3 mi
4:30 PM84 °FMore clouds than sun.14 mph74%29.74 "Hg3 mi
4:00 PM84 °FMore clouds than sun.10 mph74%29.74 "Hg3 mi
3:30 PM84 °FDrizzle. More clouds than sun.12 mph70%29.74 "Hg3 mi
3:00 PM84 °FBroken clouds.12 mph70%29.74 "Hg3 mi
2:30 PM84 °FBroken clouds.17 mph66%29.77 "Hg4 mi
2:00 PM86 °FBroken clouds.17 mph66%29.77 "Hg4 mi
1:30 PM86 °FBroken clouds.14 mph62%29.77 "Hg4 mi
1:00 PM86 °FBroken clouds.16 mph66%29.77 "Hg4 mi
12:30 PM84 °FBroken clouds.16 mph74%29.77 "Hg4 mi
12:00 PM82 °FBroken clouds.12 mph84%29.77 "Hg3 mi
11:30 AM79 °FLight rain. Broken clouds.14 mph89%29.80 "Hg2 mi
11:00 AM84 °FMore clouds than sun.17 mph70%29.80 "Hg3 mi
10:30 AM86 °FBroken clouds.10 mph66%29.80 "Hg4 mi
10:00 AM84 °FBroken clouds.12 mph70%29.80 "Hg3 mi
Weather by CustomWeather, © 2016

See weather overviewHow to use our weather pages